Flag for Germany Weather past 2 weeks in Ludwigsfelde, Brandenburg, Germany

Now
57 °F

Partly sunny.


Feels Like: 57 °F
Forecast: 52 / 56 °F
Wind: 5 mph from Northwest

Location: Potsdam

Current Time: Sep 21, 2014 at 7:14:42 PM

Latest Report: Sep 21, 2014 at 7:00 PM


Visibility: 28 mi

Pressure: 29.85 "Hg

Humidity: 95%

Dew point: 56 °F

Location of LudwigsfeldeLocation

Historic Weather in Ludwigsfelde — Graph

°F

Ludwigsfelde temperature yesterday

Maximum temperature yesterday: 66 °F (at 3:00 PM)
Minimum temperature yesterday: 57 °F (at 5:00 AM)
Average temperature yesterday: 60 °F

Past Weeks' High & Low Weather Summary

 TemperatureHumidityPressure
High78 °F (Sep 7, 3:00 PM)100% (Sep 21, 4:00 AM)30.16 "Hg (Sep 21, 4:00 AM)
Low52 °F (Sep 9, 4:00 AM)43% (Sep 8, 3:00 PM)29.85 "Hg (Sep 21, 4:00 PM)
Average62 °F85%30.02 "Hg
* Reported Sep 6 6:00 PM — Sep 21 6:00 PM, Ludwigsfelde, Weather by CustomWeather, © 2014

Note: Actual official high and low records may vary slightly from our data, if they occured in-between our weather recording intervals... More about our weather records

Advertising

Ludwigsfelde weather history for previous 24 hours

 ConditionsComfort  
Time TempWeatherWind HumidityBarometerVisibility
6:00 PM
Sep 21
59 °FOvercast.5 mph90%29.85 "Hg28 mi
5:00 PM60 °FLight rain. Overcast.7 mph91%29.85 "Hg9 mi
4:00 PM64 °FOvercast.6 mph78%29.85 "Hg9 mi
3:00 PM63 °FLow clouds.3 mph85%29.86 "Hg4 mi
2:00 PM62 °FOvercast.5 mph89%29.87 "Hg4 mi
1:00 PM62 °FFog.3 mph90%29.88 "Hg4 mi
12:00 PM62 °FFog.3 mph92%29.88 "Hg2 mi
11:00 AM61 °FFog.5 mph97%29.87 "Hg1 mi
10:00 AM61 °FFog.5 mph99%29.87 "Hg1 mi
9:00 AM61 °FFog.3 mph99%29.86 "Hg1 mi
8:00 AM61 °FFog.5 mph99%29.86 "Hg0 mi
7:00 AM61 °FFog.3 mph99%29.85 "Hg0 mi
6:00 AM60 °FFog.5 mph100%29.86 "Hg1 mi
5:00 AM61 °FFog.3 mph99%29.86 "Hg1 mi
4:00 AM61 °FFog.3 mph100%29.87 "Hg1 mi
3:00 AM62 °FFog.3 mph99%29.88 "Hg1 mi
2:00 AM62 °FFog.3 mph99%29.88 "Hg1 mi
1:00 AM62 °FOvercast.3 mph99%29.88 "Hg2 mi
12:00 AM62 °FFog.2 mph99%29.88 "Hg2 mi
10:00 PM
Sep 20
62 °FOvercast.3 mph98%29.89 "Hg6 mi
9:00 PM63 °FPassing clouds.2 mph98%29.90 "Hg6 mi
8:00 PM64 °FOvercast.2 mph97%29.90 "Hg6 mi
Weather by CustomWeather, © 2014

See weather overviewHow to use our weather pages